Location: Caixon
(43.4106°N, 0.0273°E)
Time: 22:06:55
(UTC+00:00)

BREEZE M DEB (TANK) - Pass Details

Date: 16 October 2021
Orbit: 334 x 13614 km, 49.6° (Epoch: 05 December)

Event Time Altitude Azimuth Distance (km) Brightness Sun altitude
Exits shadow 04:28:37 22° 298° (WNW) 2,636 5.8 -20.1°
Maximum altitude 04:33:27 87° 29° (NNE) 761 3.4 -19.2°
Drops below altitude 10° 04:36:38 10° 116° (ESE) 1,646 6.1 -18.6°
Sets 04:38:00 0° 117° (ESE) 2,305 7.0 -18.4°
